TimeMST,TemperatureF,Dew PointF,Humidity,Sea Level PressureIn,VisibilityMPH,Wind Direction,Wind SpeedMPH,Gust SpeedMPH,PrecipitationIn,Events,Conditions,WindDirDegrees,DateUTC
12:55 AM,32.0,28.0,85,29.56,10.0,South,9.2,-,N/A,,Mostly Cloudy,180,2011-11-14 07:55:00
1:55 AM,34.0,28.0,79,29.54,10.0,South,6.9,18.4,N/A,,Overcast,190,2011-11-14 08:55:00
2:55 AM,30.9,28.0,89,29.55,10.0,Calm,Calm,-,N/A,,Overcast,0,2011-11-14 09:55:00
3:55 AM,27.0,25.0,92,29.53,10.0,South,6.9,-,N/A,,Partly Cloudy,170,2011-11-14 10:55:00
4:55 AM,30.2,30.2,100,29.46,10.0,SSE,6.9,-,N/A,,Scattered Clouds,150,2011-11-14 11:55:00
5:11 AM,30.2,28.4,93,29.46,10.0,SE,3.5,-,N/A,,Scattered Clouds,130,2011-11-14 12:11:00
5:55 AM,32.0,28.0,85,29.51,10.0,SSW,5.8,-,N/A,,Mostly Cloudy,210,2011-11-14 12:55:00
6:36 AM,30.2,28.4,93,29.45,10.0,South,6.9,-,N/A,,Partly Cloudy,170,2011-11-14 13:36:00
6:55 AM,30.9,30.0,96,29.51,10.0,SE,5.8,-,N/A,,Scattered Clouds,130,2011-11-14 13:55:00
7:55 AM,30.0,26.1,85,29.50,10.0,East,6.9,-,N/A,,Mostly Cloudy,100,2011-11-14 14:55:00
8:55 AM,33.1,28.9,85,29.52,10.0,SSW,3.5,-,N/A,,Mostly Cloudy,200,2011-11-14 15:55:00
9:01 AM,33.8,28.4,81,29.46,1.0,West,4.6,-,0.00,Snow,Light Snow,280,2011-11-14 16:01:00
9:10 AM,32.0,28.4,87,29.46,1.0,Calm,Calm,-,0.00,Snow,Light Snow,0,2011-11-14 16:10:00
9:16 AM,32.0,28.4,87,29.46,0.8,SSE,3.5,-,0.00,Snow,Light Snow,150,2011-11-14 16:16:00
9:23 AM,32.0,30.2,93,29.46,1.5,Calm,Calm,-,0.00,Snow,Light Snow,0,2011-11-14 16:23:00
9:25 AM,33.8,30.2,87,29.46,3.0,Calm,Calm,-,0.00,Snow,Light Snow,0,2011-11-14 16:25:00
9:39 AM,33.8,30.2,87,29.46,10.0,East,3.5,-,0.00,,Mostly Cloudy,90,2011-11-14 16:39:00
9:55 AM,34.0,30.9,89,29.52,10.0,Calm,Calm,-,0.00,Snow,Light Snow,0,2011-11-14 16:55:00
10:14 AM,33.8,30.2,87,29.48,1.5,North,10.4,-,0.00,Snow,Light Snow,360,2011-11-14 17:14:00
10:16 AM,33.8,30.2,87,29.49,0.8,North,12.7,-,0.00,Snow,Light Snow,350,2011-11-14 17:16:00
10:17 AM,33.8,30.2,87,29.49,0.2,North,11.5,-,0.00,Fog-Snow,Light Snow,360,2011-11-14 17:17:00
10:23 AM,32.0,30.2,93,29.48,0.2,Calm,Calm,-,0.03,Fog-Snow,Light Snow,0,2011-11-14 17:23:00
10:36 AM,33.8,30.2,87,29.49,1.2,West,4.6,-,0.05,Snow,Light Snow,270,2011-11-14 17:36:00
10:38 AM,33.8,30.2,87,29.49,3.0,West,3.5,-,0.05,Snow,Light Snow,280,2011-11-14 17:38:00
10:51 AM,32.0,30.2,93,29.49,10.0,South,5.8,-,0.05,,Scattered Clouds,180,2011-11-14 17:51:00
10:55 AM,32.0,30.0,92,29.55,10.0,SSE,6.9,-,0.05,,Partly Cloudy,160,2011-11-14 17:55:00
11:55 AM,39.9,26.1,58,29.55,10.0,WNW,11.5,-,N/A,,Partly Cloudy,290,2011-11-14 18:55:00
12:55 PM,42.1,21.9,45,29.55,10.0,WNW,15.0,20.7,N/A,,Mostly Cloudy,290,2011-11-14 19:55:00
1:55 PM,42.1,23.0,47,29.54,10.0,Variable,5.8,-,N/A,,Mostly Cloudy,0,2011-11-14 20:55:00
2:17 PM,33.8,26.6,75,29.52,1.5,WNW,25.3,41.4,0.00,Snow,Light Snow,290,2011-11-14 21:17:00
2:19 PM,33.8,26.6,75,29.52,2.0,West,25.3,41.4,0.00,Snow,Light Snow,280,2011-11-14 21:19:00
2:27 PM,33.8,26.6,75,29.50,3.0,West,17.3,39.1,0.00,Snow,Light Snow,260,2011-11-14 21:27:00
2:38 PM,33.8,26.6,75,29.53,10.0,West,11.5,24.2,0.00,,Overcast,280,2011-11-14 21:38:00
2:55 PM,34.0,26.1,73,29.61,10.0,Variable,6.9,-,0.00,,Overcast,0,2011-11-14 21:55:00
3:55 PM,33.1,26.1,75,29.67,10.0,Variable,6.9,-,0.00,,Mostly Cloudy,0,2011-11-14 22:55:00
4:55 PM,34.0,16.0,48,29.69,10.0,West,10.4,16.1,N/A,,Mostly Cloudy,260,2011-11-14 23:55:00
5:55 PM,33.1,10.9,40,29.73,10.0,West,11.5,19.6,N/A,,Clear,280,2011-11-15 00:55:00
6:55 PM,30.9,7.0,37,29.77,10.0,WNW,8.1,-,N/A,,Clear,290,2011-11-15 01:55:00
7:55 PM,28.9,6.1,38,29.81,10.0,West,9.2,-,N/A,,Clear,280,2011-11-15 02:55:00
8:55 PM,28.0,7.0,41,29.85,10.0,NW,3.5,-,N/A,,Clear,310,2011-11-15 03:55:00
9:55 PM,26.6,6.8,43,29.79,10.0,NNW,3.5,-,N/A,,Clear,340,2011-11-15 04:55:00
10:55 PM,19.9,10.0,65,29.91,10.0,Calm,Calm,-,N/A,,Clear,0,2011-11-15 05:55:00
11:55 PM,19.0,9.0,65,29.92,10.0,Calm,Calm,-,N/A,,Clear,0,2011-11-15 06:55:00